{"data":{"norad_id":62335,"intl_designator":"2024-241C","name":"PIESAT-2 11","alt_names":[],"object_type":"PAYLOAD","status":"ACTIVE","operator":null,"country":"PRC","launch_date":"2024-12-16","launch_site_code":"TAISC","launch_vehicle":null,"mission":null,"orbit_class":"UNKNOWN","rcs_meters":null,"size_class":null,"mass_kg":null,"dimensions":null,"purposes":[],"wikipedia_slug":null,"has_3d_model":false,"image_url":null,"decayed_at":null,"tle_current":{"epoch":"2026-09-22T23:00:44.844768Z","epoch_age_seconds":99525,"freshness":"FRESH","line1":"1 62335U 24241C   26265.95885237  .00005089  00000+0  27416-3 0  9994","line2":"2 62335  97.5351 212.5334 0001937  60.2521 299.8904 15.15250247 97613","mean_motion":15.15250247,"eccentricity":0.0001937,"inclination_deg":97.5351,"raan_deg":212.5334,"arg_perigee_deg":60.2521,"mean_anomaly_deg":299.8904,"bstar":0.00027416,"rev_number":9761,"period_min":95.033807310114,"perigee_km":518.88272457247,"apogee_km":521.55514766212,"semimajor_km":6898.3559361173,"source":"CELESTRAK","updated_at":"2026-09-23T09:00:21.387278Z"}}}